Regional Weather Roundup
Issued by NWS

Home | Current Version | Previous Version | Text Only | Print | Product List | Glossary Off
Versions: 1 2 3 4 5 6 7 8 9 10 11 12 13 14 15 16 17 18 19 20 21 22 23 24 25 26 27 28 29 30 31 32 33 34 35 36 37 38 39 40 41 42 43 44 45 46 47 48 49 50

000
ASUS43 KMKX 260700
RWRWI

WISCONSIN REGIONAL WEATHER ROUNDUP
NATIONAL WEATHER SERVICE MILWAUKEE/SULLIVAN WI
200 AM CDT SUN MAR 26 2017

NOTE: "FAIR" INDICATES FEW OR NO CLOUDS BELOW 12,000 FEET WITH NO
SIGNIFICANT WEATHER AND/OR OBSTRUCTIONS TO VISIBILITY.

WIZ001-002-006>008-014>016-023>028-260800-
NORTHWEST WISCONSIN

CITY           SKY/WX    TMP DP  RH WIND       PRES   REMARKS
SUPERIOR ARPT  CLOUDY    33  32  96 E7        30.08F WCI  27
ASHLAND        CLOUDY    32  30  92 NE5       30.07F WCI  27
HAYWARD        CLOUDY    35  31  85 NE6       30.03F WCI  30
SIREN          CLOUDY    35  30  82 NE7       30.03F WCI  29
CUMBERLAND     CLOUDY    34  32  93 E5        30.01F FOG     WCI  30
RICE LAKE      CLOUDY    35  34  94 CALM      30.03F
CHETEK         CLOUDY    35  33  94 E5        30.02F WCI  31
LADYSMITH      CLOUDY    35  33  92 E5        30.03F FOG     WCI  31
EAU CLAIRE     NOT AVBL
MENOMONIE      DRIZZLE   35  34  96 NE6       30.01F WCI  30
NEW RICHMOND   DRIZZLE   35  35  99 E7        30.01F WCI  29
OSCEOLA        CLOUDY    37  37 100 E7        30.04F WCI  32
$$

WIZ003>005-009-010-017-018-260800-
NORTH CENTRAL WISCONSIN

CITY           SKY/WX    TMP DP  RH WIND       PRES   REMARKS
MANITOWISH WTR MIX PCPN  32  32 100 SE5       30.03F WCI  27
ARBOR VITAE    CLOUDY    34  32  94 SE6       30.02F WCI  29
WOODRUFF       CLOUDY    34  32  94 SE6       30.02F WCI  29
RHINELANDER    CLOUDY    33  33 100 E10       30.02F WCI  25
EAGLE RIVER    MIX PCPN  32  32  99 E8        30.03F WCI  25
LAND O LAKES   MIX PCPN  32  32  99 SE7       30.05F WCI  26
PHILLIPS       CLOUDY    32  32 100 E5        30.01F WCI  27
TOMAHAWK       CLOUDY    32  31  96 E3        30.03F
MEDFORD        CLOUDY    32  31  98 E9        30.00F FOG     WCI  24
MERRILL        CLOUDY    33  33  99 E6        30.03F WCI  27
$$

WIZ029-030-035-036-043>047-260800-
CENTRAL WISCONSIN

CITY           SKY/WX    TMP DP  RH WIND       PRES   REMARKS
WAUSAU         CLOUDY    32  32 100 E8        30.01F WCI  25
MOSINEE        CLOUDY    32  32 100 E9        30.02F WCI  24
MARSHFIELD     CLOUDY    33  31  92 E13       29.98F WCI  24
STEVENS POINT  MIX PCPN  32  32 100 E9G16     30.02F WCI  24
WAUPACA        DRIZZLE   37  35  94 NE7       30.03F WCI  31
WAUTOMA        MIX PCPN  35  34  96 NE13      30.00F FOG     WCI  26
WISC RAPIDS    CLOUDY    34  34 100 E8        30.01F WCI  27
CAMP DOUGLAS   MIX PCPN  36  36 100 E7        29.98F FOG     WCI  30
$$

WIZ011>013-019>022-031-037>040-048>050-260800-
NORTHEAST WISCONSIN

CITY           SKY/WX    TMP DP  RH WIND       PRES   REMARKS
ANTIGO         CLOUDY    31  31 100 E8        30.03F FOG     WCI  24
SHAWANO        CLOUDY    35  33  92 NE10      30.07F WCI  27
OCONTO         CLOUDY    33  32  98 NE10      30.08F WCI  24
STURGEON BAY   LGT RAIN  34  34 100 E8G16     30.07F WCI  27
GREEN BAY      CLOUDY    35  35 100 NE10      30.05F FOG     WCI  27
MANITOWOC      NOT AVBL
APPLETON       CLOUDY    34  34 100 NE12G18   30.01F FOG     WCI  25
CLINTONVILLE   CLOUDY    34  32  93 E10       30.05F WCI  26
OSHKOSH        MIX PCPN  36  35  96 NE12      30.00F FOG     WCI  28
$$

WIZ032>034-041-042-053>061-260800-
SOUTHWEST WISCONSIN

CITY           SKY/WX    TMP DP  RH WIND       PRES   REMARKS
LA CROSSE      CLOUDY    38  36  92 E3        29.97F
SPARTA         CLOUDY    35  35  99 E8        29.98F WCI  28
VIROQUA        CLOUDY    36  36 100 E13       29.94F WCI  27
BOSCOBEL       CLOUDY    40  38  93 NE6       29.94F FOG
PRAIRIE DU CHI CLOUDY    39  38  97 NE6       29.93F FOG     WCI  34
PLATTEVILLE    CLOUDY    40  40 100 NE13      29.90F WCI  33
$$

WIZ056-057-062-063-064-067-068-260800-
SOUTH CENTRAL WISCONSIN

CITY           SKY/WX    TMP DP  RH WIND       PRES   REMARKS
REEDSBURG      DRIZZLE   37  37 100 E9        29.96F WCI  30
BARABOO/DELLS  CLOUDY    37  36  97 E8        29.96F FOG     WCI  30
LONE ROCK      NOT AVBL
MINERAL POINT  CLOUDY    41  41 100 NE12      29.90F FOG
MADISON        CLOUDY    39  38  96 NE9       29.94F WCI  33
MIDDLETON      CLOUDY    40  40 100 NE8       29.94F WCI  35
WATERTOWN      CLOUDY    39  39 100 E12G17    29.95F FOG     WCI  32
MONROE         FOG       39  39 100 NE12      29.90F VSB 1/4 WCI  32
JANESVILLE     CLOUDY    43  43 100 E10       29.91F FOG
$$

WIZ051-052-058>065-066-070>072-260800-
SOUTHEAST WISCONSIN

CITY           SKY/WX    TMP DP  RH WIND       PRES   REMARKS
MILWAUKEE      LGT RAIN  39  37  92 NE14      29.98F FOG     WCI  31
WAUKESHA       FOG       36  36 100 NE8G17    29.98F VSB 3/4 WCI  29
MILWAUKEE/TIMM CLOUDY    37  36  93 NE9       30.00F FOG     WCI  31
RACINE         LGT RAIN  39  38  96 NE12      29.98F FOG     WCI  32
KENOSHA        LGT RAIN  41  40  96 NE13      29.94F FOG
FOND DU LAC    LGT RAIN  38  35  89 NE9       29.99F WCI  31
SHEBOYGAN      CLOUDY    37  36  96 NE13      30.02F FOG     WCI  29
WEST BEND      CLOUDY    37  37 100 E9        30.00F FOG     WCI  31
JUNEAU         RAIN      38  37  97 NE10G18   29.97F WCI  31
$$

LSZ147-162-260800-
LAKE SUPERIOR

STATION/POSITION TIME  TEMP    WIND        PRES    WAVE
                       AIR SEA DIR/SP/G            HT/PER
                 (UTC) (F)     (DEG/KT/KT) (MB)    (FT/S)
DEVILS ISLAND    0600   33      80/ 15/ 16 1020.3F
PORT WING        0640   34      60/  5/  6 1019.0F
SAXON HARBOR     0640   33      70/  5/  7 1018.6F
$$

LMZ867-665-643>646-260800-
LAKE MICHIGAN

STATION/POSITION TIME  TEMP    WIND        PRES    WAVE
                       AIR SEA DIR/SP/G            HT/PER
                 (UTC) (F)     (DEG/KT/KT) (MB)    (FT/S)
CHAMBERS ISLAND  0640   33      40/ 10/ 15 1019.0F
NORTHPORT PIER   0640   33      70/ 16/ 19 1019.6F
SISTER BAY       0606   33     100/ 10/ 13   N/A
KEWAUNEE LAKESHO 0630   36      60/  8/ 13 1017.4F
SHEBOYGAN LAKESH 0600   37      40/ 12/ 13 1017.6F
PORT WASHINGTON  0630   38      40/ 14/ 17 1017.3F
MILWAUKEE LAKESH 0630   38      30/ 14/ 15   N/A
KENOSHA   LAKESH 0600   38      30/ 13/ 16 1014.9
$$

TC  - TEMPERATURE IN CELSIUS
VSB - VISIBILITY IN STATUTE MILES
WCI - WIND CHILL INDEX
HX  - HEAT INDEX





USA.gov is the U.S. government's official web portal to all federal, state and local government web resources and services.